This is the latest recevied weather packets stored in our database for station/object AG1T-1. If no packets are shown the sender has not sent any weather packets the latest 10 day(s).
| Time | Temp. | Humidity | Pressure | Rain* | Wind** | Luminosity | Snow |
|---|---|---|---|---|---|---|---|
| 1777218003 | 5.56° C | 92% | 1006 hPa | 0.25 mm | - | 76 W/m² | - |
| 1777217403 | 5.56° C | 93% | 1006 hPa | 0.25 mm | - | 104 W/m² | - |
| 1777216803 | 5.56° C | 92% | 1006.1 hPa | 0 mm | - | 83 W/m² | - |
| 1777216203 | 5.56° C | 92% | 1006 hPa | 0.25 mm | - | 79 W/m² | - |
| 1777215603 | 5° C | 92% | 1006.1 hPa | 0.25 mm | - | 77 W/m² | - |
| 1777215003 | 5° C | 92% | 1006.1 hPa | 0.25 mm | - | 69 W/m² | - |
| 1777214403 | 5° C | 92% | 1006.2 hPa | 0.25 mm | - | 72 W/m² | - |
| 1777213803 | 5° C | 92% | 1006.2 hPa | 0.25 mm | - | 67 W/m² | - |
| 1777213203 | 5° C | 92% | 1006.2 hPa | 0.25 mm | - | 51 W/m² | - |
| 1777212603 | 5° C | 92% | 1006.3 hPa | 0.25 mm | - | 37 W/m² | - |
| 1777212003 | 5° C | 92% | 1006.2 hPa | 0.25 mm | - | 39 W/m² | - |
| 1777211403 | 5° C | 91% | 1006.3 hPa | 0.25 mm | - | 32 W/m² | - |
| 1777210803 | 5° C | 91% | 1006.3 hPa | 0.25 mm | - | 23 W/m² | - |
| 1777210203 | 5° C | 91% | 1006.3 hPa | 0.25 mm | - | 14 W/m² | - |
| 1777209603 | 5° C | 90% | 1006.3 hPa | 0.25 mm | - | 11 W/m² | - |
| 1777209003 | 5° C | 91% | 1006.1 hPa | 0 mm | - | 7 W/m² | - |
| 1777208403 | 5° C | 90% | 1006.1 hPa | 0 mm | - | 5 W/m² | - |
| 1777207803 | 5° C | 90% | 1006.2 hPa | 0 mm | - | 0 W/m² | - |
| 1777207203 | 5° C | 89% | 1006.2 hPa | 0 mm | - | 0 W/m² | - |
| 1777206603 | 5° C | 89% | 1006.2 hPa | 0.25 mm | - | 0 W/m² | - |
| 1777206003 | 4.44° C | 88% | 1006.2 hPa | 0.25 mm | - | 0 W/m² | - |
| 1777205403 | 4.44° C | 87% | 1006.3 hPa | 0.25 mm | - | 0 W/m² | - |
| 1777204803 | 4.44° C | 86% | 1006.3 hPa | 0.25 mm | - | 0 W/m² | - |
| 1777204203 | 4.44° C | 85% | 1006.3 hPa | 0.25 mm | - | 0 W/m² | - |
| 1777203603 | 5° C | 85% | 1006.3 hPa | 0.25 mm | - | 0 W/m² | - |
* Rain latest hour (hover to see other rain measurements)
** Current wind speed in m/s (hover to see current wind gust speed)